www.pogodaiklimat.ru

Погода и климат >> Архив погоды >> Индия >> Hissar


ПОГОДА в Hissar

  • Прогноз погоды в Hissar
  • Монитор погоды в Hissar
  • Климат города

АРХИВ ПОГОДЫ в Hissar

Время (UTC), дата Ветер
(напр.,м/с)
 
Видим.   Явления Облачность Т
(С)
Тd
(С)
f
(%)
Тe
(С)
Тes
(С)
Комфортность P
(гПа)
Po
(гПа)
Тmin
(С)
Tmax
(С)
R
(мм)
R24
(мм)
S
(см)
03 16.09 З 1 4000 м ясно +28.6 +24.0 76 +40 +45 очень
душно
1008.3 1008.0 +24.0 +36.6
06 16.09 З 1 4000 м ясно +34.0 +22.4 51 +43 +62 опасность
перегрева
1007.6 1008.0
09 16.09 С 2 4000 м 3/3 600 м
[Cu med, cong]
+35.4 +20.6 42 +42 +51 опасность
перегрева
1005.3 1005.0
12 16.09 С 2 4000 м ясно +33.8 +20.7 46 +41 +42 опасность
перегрева
1004.4 1004.0 +35.7
15 16.09 СЗ 1 4000 м ясно +29.4 +23.6 71 +40 +40 очень
душно
1005.1 1005.0
00 17.09 штиль 0 4000 м ясно +25.5 +23.9 91 +35 +35 очень
душно
1006.2 1006.0
03 17.09 ЮЗ 1 4000 м ясно +28.0 +24.9 83 +40 +46 очень
душно
1007.0 1007.0 +24.4 +35.7
06 17.09 З 2 4000 м 5/5 600 м
[Sc]
+32.6 +23.4 58 +43 +52 опасность
перегрева
1006.6 1007.0
09 17.09 СЗ 2 4000 м 1/1 600 м
[Cu hum]
+35.4 +19.8 40 +41 +52 опасность
перегрева
1004.6 1005.0
12 17.09 СЗ 2 4000 м ясно +33.4 +20.9 48 +41 +42 опасность
перегрева
1003.9 1004.0 +35.8
15 17.09 СЗ 1 4000 м ясно +31.0 +22.9 62 +41 +41 опасность
перегрева
1004.8 1005.0
18 17.09 СЗ 1 4000 м ясно +28.4 +23.5 75 +39 +39 очень
душно
1005.6 1006.0
21 17.09 штиль 0 4000 м ясно +26.4 +23.5 84 +36 +36 очень
душно
1005.7 1006.0
00 18.09 штиль 0 4000 м ясно +24.4 +21.6 84 +31 +31 очень
душно
1005.9 1006.0
03 18.09 штиль 0 4000 м ясно +29.4 +21.4 62 +37 +43 очень
душно
1007.3 1007.0 +22.8 +35.8
06 18.09 ЮЗ 1 4000 м ясно +35.4 +21.3 44 +43 +63 опасность
перегрева
1006.9 1007.0
09 18.09 СЗ 2 4000 м 3/3 600 м
[Cu med, cong]
+37.0 +19.7 37 +43 +51 опасность
перегрева
1004.1 1004.0
12 18.09 СЗ 2 4000 м ясно +34.0 +21.3 48 +42 +43 опасность
перегрева
1003.7 1004.0 +37.2
15 18.09 С 1 4000 м ясно +29.8 +23.7 70 +41 +41 опасность
перегрева
1004.9 1005.0
00 19.09 штиль 0 4000 м ясно +25.2 +22.5 85 +33 +33 очень
душно
1006.0 1006.0
03 19.09 штиль 0 4000 м ясно +28.4 +22.5 70 +37 +43 очень
душно
1007.7 1008.0 +23.4 +37.2
06 19.09 З 1 4000 м ясно +34.8 +20.2 43 +41 +61 опасность
перегрева
1007.1 1007.0
09 19.09 СЗ 3 4000 м ясно +36.4 +18.9 36 +41 +52 опасность
перегрева
1003.9 1004.0
12 19.09 СЗ 2 4000 м ясно +34.2 +22.6 51 +44 +45 опасность
перегрева
1003.0 1003.0 +37.0
15 19.09 СВ 1 4000 м ясно +30.0 +24.5 72 +42 +42 опасность
перегрева
1004.5 1005.0
18 19.09 СВ 1 4000 м ясно +27.8 +24.0 80 +39 +39 очень
душно
1005.0 1005.0
21 19.09 СВ 1 4000 м ясно +26.0 +22.8 83 +35 +35 очень
душно
1005.0 1005.0
00 20.09 СВ 1 4000 м ясно +24.4 +21.4 83 +31 +31 очень
душно
1004.9 1005.0
03 20.09 штиль 0 2000 м мгла ясно +29.4 +21.4 62 +37 +43 очень
душно
1006.2 1006.0 +22.9 +37.0
06 20.09 В 1 4000 м ясно +34.4 +22.2 49 +43 +63 опасность
перегрева
1006.5 1007.0
09 20.09 С 1 4000 м ясно +36.2 +21.6 43 +44 +60 опасность
перегрева
1004.7 1005.0
12 20.09 СЗ 1 4000 м ясно +34.0 +21.7 49 +42 +44 опасность
перегрева
1004.2 1004.0 +37.0
15 20.09 С 1 4000 м 3/0
[Ac trans]
+29.2 +23.7 72 +40 +40 очень
душно
1005.9 1006.0
18 20.09 штиль 0 4000 м 4/0
[Ac trans]
+27.2 +24.0 83 +38 +38 очень
душно
1007.1 1007.0
21 20.09 штиль 0 4000 м 3/0
[Ac trans]
+26.0 +23.1 84 +35 +35 очень
душно
1006.7 1007.0
00 21.09 С 1 4000 м ясно +25.0 +23.5 91 +34 +34 очень
душно
1006.9 1007.0
03 21.09 В 1 2000 м мгла ясно +28.8 +23.3 72 +39 +44 очень
душно
1008.6 1009.0 +23.5 +37.0
06 21.09 В 1 4000 м 6/6 600 м
[Cu hum]
+33.4 +24.3 59 +46 +53 опасность
перегрева
1008.7 1009.0
09 21.09 В 2 4000 м 3/3 600 м
[Cu hum]
+34.0 +24.4 57 +46 +55 опасность
перегрева
1006.9 1007.0
12 21.09 В 1 4000 м 1/1 600 м
[Cu hum]
+33.4 +24.9 61 +47 +48 опасность
перегрева
1005.8 1006.0 +35.0
15 21.09 В 1 4000 м 3/3 1000 м
[Cu hum]
+30.4 +25.0 73 +44 +44 опасность
перегрева
1007.5 1008.0
18 21.09 В 1 4000 м 4/4 1000 м
[Cu hum]
+27.4 +24.8 86 +39 +39 очень
душно
1008.4 1008.0
21 21.09 В 2 4000 м 8/5 1000 м
[Sc Ac trans]
+24.8 +23.6 93 +34 +34 очень
душно
1009.0 1009.0
00 22.09 В 1 4000 м в посл. час дождь 10/6 600 м
[Sc As op]
+23.6 +22.7 95 +31 +31 очень
душно
1009.3 1009.0 0.8
03 22.09 С 2 2000 м слабый дождь 10/8 300 м
[Frnb As op]
+22.6 +22.6 100 +31 +31 очень
душно
1010.3 1010.0 +20.0 +35.0 36
06 22.09 С 3 4000 м {дождь} 10/8 300 м
[Frnb As op]
+22.4 +22.4 100 +30 +31 очень
душно
1011.6 1012.0 7
09 22.09 СВ 1 4000 м {дождь} 10/6 600 м
[Sc As op]
+22.4 +22.4 100 +30 +31 очень
душно
1008.9 1009.0 8
12 22.09 СЗ 1 4000 м слабый дождь 10/8 600 м
[Sc As op]
+22.8 +22.8 100 +31 +31 очень
душно
1008.4 1008.0 +29.5 11
15 22.09 С 2 4000 м {дождь} 10/4 600 м
[Sc As op]
+23.0 +22.1 95 +31 +31 очень
душно
1009.8 1010.0 11

 

Местоположение метеостанции Hissar (Haryana, Индия): широта 29.17 долгота 75.73 высота над уровнем моря 221 м.

В архиве по умолчанию представлена погода в Hissar за последнюю неделю. Архивные данные за месяц целиком и за предыдущие месяцы, начиная с января 2011 года, Вы можете получить, выбрав интересующий диапазон дат из раскрывающегося списка и нажав кнопку "Ввод!".


*Определитесь, кто Вы:
робот инопланетянин человек

Внимание! Время в таблицах - всемирное. Для получения местного времени необходимо прибавить поправку, которая в Hissar равна 5.5 ч.

Смотрите также архив погоды в соседних городах и на ближайших метеорологических станциях:

Погода в Rohtak (Haryana, Индия) (91 км)
Погода в Pilani (Rajasthan, Индия) (95 км)
Погода в Churu (Rajasthan, Индия) (129 км)
Погода в Karnal (Haryana, Индия) (139 км)
Погода в Patiala (Punjab, Индия) (147 км)
Погода в New Delhi Airport (Delhi, Индия) (151 км)
Погода в New Delhi Aya Nagar (Delhi, Индия) (157 км)
Погода в New Delhi (Delhi, Индия) (157 км)
Погода в Ridge (Delhi, Индия) (162 км)
Погода в Ambala (Haryana, Индия) (166 км)

Пояснения к столбцам:

Ветер - указаны скорость ветра в м/с - средняя за 10 мин, порывы в срок и между сроками (в фигурных скобках) и направление, откуда дует ветер: С - северный, СВ - северо-восточный, В - восточный, ЮВ - юго-восточный, Ю - южный, ЮЗ - юго-западный, З - западный, СЗ - северо-западный.
Видимость - горизонтальная дальность видимости в метрах или километрах. При видимости от 1 до 10 км при отсутствии осадков обычно наблюдается дымка, при ухудшении видимости до 1 км и менее - туман. В сухую погоду видимость может ухудшаться дымом, пылью или мглою.
Явления - указаны атмосферные явления, наблюдавшиеся в срок или в последний час перед сроком; фигурными скобками обозначены явления, наблюдавшиеся между сроками (за 1-3 часа до срока); квадратными скобками обозначены град или гололедные отложения с указанием их диаметра в мм.
Облачность - указаны через наклонную черту общая и нижняя облачность в баллах и высота нижней границы облаков в метрах; квадратными скобками обозначены формы облаков: Ci - перистые, Cs - перисто-слоистые, Cc - перисто-кучевые, Ac - высококучевые, As - высокослоистые, Sc - слоисто-кучевые, Ns - слоисто-дождевые, Cu - кучевые, Cb - кучево-дождевые. Подробнее классификацию облаков см. в Атласе облаков (PDF).
T - Температура воздуха - температура, измеренная на высоте 2 м над землей.
Td - Температура точки росы - температура, при понижении до которой содержащийся в воздухе водяной пар достигнет насыщения.
f - Относительная влажность воздуха - влажноcть воздуха, измеренная на высоте 2 м над землей.
Te - Эффективная температура - температура, которую ощущает одетый по сезону человек в тени. Характеристика душности погоды. При расчете учитывается влияние влажности воздуха и скорости ветра на теплоощущения человека.
Tes - Эффективная температура на солнце - температура, которую ощущает человек, с поправкой на солнечный нагрев. Характеристика знойности погоды. Зависит от высоты солнца над горизонтом, облачности и скорости ветра. Ночью, в пасмурную погоду, а также при ветре 12 м/с и более поправка равна нулю.
P - Атмосферное давление - приведенное к уровню моря атмосферное давление.
Po - Атмосферное давление - измеренное на уровне метеостанции атмосферное давление.
Tmin - Минимальная температура - минимум температуры воздуха на высоте 2 м над землей.
Tmax - Максимальная температура - максимум температуры воздуха на высоте 2 м над землей.
R - Количество осадков - Количество выпавших осадков за период времени, мм. При наведении курсора мыши на число - период времени, за который выпало указанное количество осадков.
R24 - Количество осадков - Количество выпавших осадков за 24 часа, мм.
S - Снежный покров - Высота снежного покрова, см. При наведении курсора мыши на число - состояние снежного покрова и степень покрытия местности в баллах.